Regional Weather Roundup
Issued by NWS

Home | Current Version | Previous Version | Text Only | Print | Product List | Glossary On
Versions: 1 2 3 4 5 6 7 8 9 10 11 12 13 14 15 16 17 18 19 20 21 22 23 24 25 26 27 28 29 30 31 32 33 34 35 36 37 38 39 40 41 42 43 44 45 46 47 48 49 50
000
ASUS44 KJAN 021210
RWRMS

MISSISSIPPI HOURLY WEATHER ROUNDUP
NATIONAL WEATHER SERVICE JACKSON MS
700 AM CDT SUN AUG 02 2015

NOTE: "FAIR: INDICATES FEW OR NO CLOUDS BELOW 12,000 FEET WITH NO
SIGNIFICANT WEATHER AND/OR OBSTRUCTIONS TO VISIBILITY.

MSZ001>002-007>008-010>013-018>021-025>028-034>036-021300-
NORTHWEST MISSISSIPPI

CITY           SKY/WX    TMP DP  RH WIND       PRES   REMARKS
CLARKSDALE     FAIR      68  68 100 CALM      29.97R
CLEVELAND      FAIR      71  69  95 CALM      29.95R
GREENWOOD      CLEAR     70  65  84 CALM      29.95R
6HR MIN TEMP:  67; 6HR MAX TEMP:  71;

GREENVILLE     CLEAR     69  68  96 CALM      29.95R
6HR MIN TEMP:  68; 6HR MAX TEMP:  73;

OLIVE BRANCH   PTCLDY    72  72 100 CALM      29.97S
OXFORD         FAIR      68  64  88 CALM      29.98S
TUNICA         SUNNY     70  68  94 CALM      29.97R
$$

MSZ003>006-009-014>017-022>024-029>033-037>039-021300-
NORTHEAST MISSISSIPPI

CITY           SKY/WX    TMP DP  RH WIND       PRES   REMARKS
COLUMBUS AFB   CLEAR     71  68  92 CALM      29.95R
6HR MIN TEMP:  69; 6HR MAX TEMP:  73;

CORINTH        FAIR      68  66  94 CALM      29.97R FOG
GOLDN TRIANGLE CLEAR     70  64  83 N5        29.95R
STARKVILLE     FAIR      68  64  88 CALM      29.97R
TUPELO         CLEAR     71  67  87 NE6       29.96R
6HR MIN TEMP:  69; 6HR MAX TEMP:  73;

$$

MSZ040-058-021300-
CENTRAL MISSISSIPPI

CITY           SKY/WX    TMP DP  RH WIND       PRES   REMARKS
JACKSON INTL   PTCLDY    73  65  75 N5        29.93R
6HR MIN TEMP:  68; 6HR MAX TEMP:  73;

JACKSON HAWKNS CLEAR     75  64  68 NE3       29.94R
6HR MIN TEMP:  74; 6HR MAX TEMP:  78;

MERIDIAN KEY   CLEAR     68  64  87 N5        29.94R
6HR MIN TEMP:  66; 6HR MAX TEMP:  69;

MERIDIAN NAS   CLEAR     67  63  87 CALM      29.95R
6HR MIN TEMP:  65; 6HR MAX TEMP:  71;

VICKSBURG      CLEAR     69  67  93 N3        29.94R
6HR MIN TEMP:  66; 6HR MAX TEMP:  70;

$$

MSZ059>079-021300-
SOUTH MISSISSIPPI

CITY           SKY/WX    TMP DP  RH WIND       PRES   REMARKS
BROOKHAVEN       N/A     66  64  94 CALM      29.95R
HATTIESBURG    MOCLDY    70  66  87 NW3       29.92R
6HR MIN TEMP:  68; 6HR MAX TEMP:  72;

MCCOMB         CLEAR     72  64  76 N3        29.93R
6HR MIN TEMP:  71; 6HR MAX TEMP:  79;

NATCHEZ        CLEAR     66  63  88 CALM      29.95R
6HR MIN TEMP:  66; 6HR MAX TEMP:  70;

PINE BELT      CLEAR     72  63  73 N5        29.93R
6HR MIN TEMP:  68; 6HR MAX TEMP:  72;

$$

MSZ080>082-021300-
COASTAL MISSISSIPPI

CITY           SKY/WX    TMP DP  RH WIND       PRES   REMARKS
BAY ST LOUIS   CLEAR     66  63  88 CALM      29.89
BILOXI         CLOUDY    76  65  69 N7        29.88R
6HR MIN TEMP:  75; 6HR MAX TEMP:  79;

PASCAGOULA     CLEAR     72  68  87 CALM      29.88R
6HR MIN TEMP:  71; 6HR MAX TEMP:  74;

GULFPORT       MOCLDY    73  65  75 N5        29.88R
6HR MIN TEMP:  71; 6HR MAX TEMP:  74;

$$


USA.gov is the U.S. government's official web portal to all federal, state and local government web resources and services.